Location: Oshawa
(43.9000°N, 78.8670°W)
Time: 13:39:23
(UTC-05:00)

Amateur Radio Satellites - All Passes

Search period start: 21 December 2014 13:09
Search period end: 22 December 2014 13:09
Location: Oshawa, 43.9000°N, 78.8670°W

Satellite Date Start Highest point End Downlink Frequencies (MHz)
Time Altitude Azimuth
ITAMSAT 1 21 Dec 13:16:59 13:22:02 56° 71° (ENE) 13:27:06 435.822/435.867
Gurwin Techsat 1B 21 Dec 13:17:14 13:22:02 36° 67° (ENE) 13:26:50 435.225
KKS-1 21 Dec 13:42:44 13:44:46 13° 90° (E) 13:46:47 437.445
M-CUBED/EXP-1 PRIME 21 Dec 13:44:12 13:47:27 20° 97° (E) 13:50:28 437.505
BEESAT 3 21 Dec 13:59:10 14:03:10 49° 309° (NW) 14:07:14 437.485
SWISSCUBE 21 Dec 14:03:23 14:08:10 78° 286° (WNW) 14:12:54 437.505
ITUPSAT 1 21 Dec 14:04:12 14:09:00 84° 285° (WNW) 14:13:45 437.325
AIST 2 21 Dec 14:10:40 14:14:54 87° 304° (WNW) 14:19:14 435.215
HORYU 2 21 Dec 14:11:57 14:16:09 42° 70° (ENE) 14:20:24 437.375
BEESAT 21 Dec 14:28:22 14:32:58 48° 289° (WNW) 14:37:31 436.000
RS-15 21 Dec 14:30:48 14:40:38 37° 329° (NNW) 14:50:41 29.354- 29.394
ISS 21 Dec 14:39:23 14:42:37 49° 334° (NNW) 14:45:50 145.825
BEESAT 2 21 Dec 14:40:40 14:44:09 25° 316° (NW) 14:47:40 435.950
PCSat 21 Dec 14:43:52 14:49:03 46° 308° (NW) 14:54:17 145.827
Oscar 19 21 Dec 14:43:57 14:44:34 10° 273° (W) 14:45:11 437.125/150
JAS-2 21 Dec 14:44:53 14:49:47 20° 58° (ENE) 14:54:23 435.910
AO-7 21 Dec 14:50:04 14:58:08 58° 64° (ENE) 15:06:16 29.400- 29.500
AUBIESAT-1 21 Dec 14:52:00 14:56:23 80° 290° (WNW) 15:00:21 437.475
Gurwin Techsat 1B 21 Dec 14:57:18 15:02:00 32° 264° (W) 15:06:43 435.225
ITAMSAT 1 21 Dec 14:58:13 15:01:52 19° 268° (W) 15:05:33 435.822/435.867
STARS 21 Dec 15:11:40 15:16:08 75° 102° (ESE) 15:20:34 437.465
KKS-1 21 Dec 15:17:24 15:21:50 66° 286° (WNW) 15:26:16 437.445
M-CUBED/EXP-1 PRIME 21 Dec 15:18:33 15:22:39 38° 296° (WNW) 15:26:25 437.505
SWISSCUBE 21 Dec 15:44:30 15:45:11 10° 304° (WNW) 15:45:53 437.505
ITUPSAT 1 21 Dec 15:44:44 15:46:06 11° 303° (WNW) 15:47:28 437.325
HORYU 2 21 Dec 15:49:43 15:53:00 20° 267° (W) 15:56:19 437.375
AIST 2 21 Dec 15:51:42 15:54:12 15° 324° (NW) 15:56:42 435.215
GONETS M04 21 Dec 15:58:12 16:06:28 44° 72° (ENE) 16:14:38
ISS 21 Dec 16:17:06 16:19:44 21° 354° (N) 16:22:21 145.825
Cubesat XI-IV 21 Dec 16:21:13 16:24:53 19° 60° (ENE) 16:28:32 437.490
JAS-2 21 Dec 16:26:25 16:34:04 87° 75° (ENE) 16:41:00 435.910
AUBIESAT-1 21 Dec 16:30:06 16:30:27 10° 309° (NW) 16:30:48 437.475
PCSat 21 Dec 16:32:09 16:33:55 11° 330° (NNW) 16:35:41 145.827
MOZHAYETS 4 21 Dec 16:33:43 16:37:43 28° 95° (E) 16:41:41
AIST 1 21 Dec 16:43:27 16:47:50 79° 279° (W) 16:52:13
AO-7 21 Dec 16:43:54 16:51:15 34° 264° (W) 16:58:42 29.400- 29.500
RS-15 21 Dec 16:48:42 16:57:20 25° 3° (N) 17:06:11 29.354- 29.394
STARS 21 Dec 16:50:02 16:52:01 13° 300° (WNW) 16:53:59 437.465
CUTE-I 21 Dec 16:52:51 16:57:35 34° 66° (ENE) 17:02:20 437.470
ISS 21 Dec 17:54:12 17:57:03 26° 14° (NNE) 17:59:53 145.825
GONETS M04 21 Dec 17:55:10 18:03:17 44° 273° (W) 18:11:20
Cubesat XI-IV 21 Dec 17:59:10 18:04:27 65° 258° (WSW) 18:09:46 437.490
CUBESAT XI-V 21 Dec 18:00:18 18:03:21 17° 91° (E) 18:06:23 437.345
MOZHAYETS 4 21 Dec 18:10:51 18:14:55 31° 292° (WNW) 18:18:58
JAS-2 21 Dec 18:14:42 18:19:41 19° 271° (W) 18:24:27 435.910
MaSat-1 21 Dec 18:21:20 18:23:35 36° 246° (WSW) 18:25:57 437.345
CUSAT 1 21 Dec 18:27:43 18:32:14 16° 59° (ENE) 18:37:01 437.405
PRISM 21 Dec 18:31:30 18:35:40 71° 102° (ESE) 18:39:46 437.425
CUTE-I 21 Dec 18:32:50 18:37:37 34° 264° (W) 18:42:25 437.470
STRAND 1 21 Dec 18:34:46 18:39:20 32° 96° (E) 18:43:52 437.568
RS-15 21 Dec 19:03:12 19:13:42 43° 37° (NE) 19:24:33 29.354- 29.394
HO-68 21 Dec 19:05:20 19:11:35 34° 60° (ENE) 19:17:51 435.675
SEEDS 21 Dec 19:09:38 19:11:45 14° 62° (ENE) 19:13:52 437.485
CUTE 1.7 + AOD 2 21 Dec 19:13:47 19:16:34 17° 64° (ENE) 19:19:23 437.475
DANDE 21 Dec 19:23:22 19:30:05 32° 69° (ENE) 19:37:34 436.750
ISS 21 Dec 19:30:38 19:33:55 82° 213° (SSW) 19:37:11 145.825
CUBESAT XI-V 21 Dec 19:36:38 19:41:05 50° 288° (WNW) 19:45:31 437.345
SO-50 21 Dec 19:43:13 19:45:06 12° 107° (ESE) 19:47:01 436.795
BRITE-PL 21 Dec 19:47:57 19:51:49 39° 71° (ENE) 19:55:42 437.365/2234.400
Oscar 11 21 Dec 19:54:12 19:56:52 16° 63° (ENE) 19:59:31 145.826/435.025
AAUSAT CUBESAT 2 21 Dec 19:59:57 20:03:42 32° 69° (ENE) 20:07:29 437.432
UKube-1 21 Dec 20:03:34 20:06:11 16° 62° (ENE) 20:08:49 .
GOMX 1 21 Dec 20:08:34 20:12:32 47° 72° (ENE) 20:16:34 467.674
CUSAT 1 21 Dec 20:08:49 20:16:32 67° 77° (ENE) 20:25:01 437.405
PRISM 21 Dec 20:09:02 20:10:37 12° 300° (WNW) 20:12:12 437.425
STRAND 1 21 Dec 20:13:58 20:18:29 33° 294° (WNW) 20:22:59 437.568
CANX-2 21 Dec 20:17:07 20:21:23 85° 77° (ENE) 20:25:43 2200.000
CUBEBUG 2 21 Dec 20:21:45 20:24:42 19° 64° (ENE) 20:27:44 437.445
ZACube-1 21 Dec 20:27:39 20:30:16 16° 63° (ENE) 20:32:54 437.345
DOVE 4 21 Dec 20:28:24 20:32:27 57° 73° (ENE) 20:36:37 437.250
VELOX 1 21 Dec 20:34:37 20:36:20 12° 60° (ENE) 20:38:02 145.980
COMPASS 1 21 Dec 20:35:35 20:39:49 90° 76° (ENE) 20:44:06 437.405
BEESAT 3 21 Dec 20:40:01 20:43:17 22° 42° (NE) 20:46:31 437.485
SEEDS 21 Dec 20:42:50 20:47:03 64° 259° (W) 20:51:19 437.485
CINEMA 3 21 Dec 20:45:02 20:49:04 51° 72° (ENE) 20:53:14 145.822/145.860
DELFI C3 21 Dec 20:45:16 20:49:08 42° 71° (ENE) 20:53:03 145.870
CUTE 1.7 + AOD 2 21 Dec 20:48:00 20:52:07 48° 261° (W) 20:56:18 437.475
50 SAT 21 Dec 20:48:40 20:50:18 12° 61° (ENE) 20:51:56 437.505
HO-68 21 Dec 20:52:03 20:59:01 53° 259° (W) 21:06:01 435.675
FUNcube-1 21 Dec 20:52:51 20:56:26 28° 68° (ENE) 21:00:06 145.935
AIST 2 21 Dec 20:53:57 20:56:37 16° 37° (NE) 20:59:16 435.215
UWE-3 21 Dec 20:56:21 21:00:11 36° 70° (ENE) 21:04:08 435.000/436.395/437.385
DANDE 21 Dec 21:06:18 21:13:56 65° 265° (W) 21:22:29 436.750
DX 1 21 Dec 21:07:49 21:12:08 73° 74° (ENE) 21:16:29 434.975-435.025
ISS 21 Dec 21:09:04 21:09:59 11° 230° (SW) 21:10:54 145.825
RS-15 21 Dec 21:15:45 21:26:56 72° 242° (WSW) 21:38:38 29.354- 29.394
AISAT 21 Dec 21:15:58 21:19:50 31° 68° (ENE) 21:23:43 437.250
HUMSAT D 21 Dec 21:17:53 21:21:31 31° 69° (ENE) 21:25:14 437.325/437.525
CUBEBUG 1 21 Dec 21:19:35 21:21:40 13° 61° (ENE) 21:23:44 437.445
SO-50 21 Dec 21:20:23 21:24:55 81° 305° (NW) 21:29:39 436.795
BEESAT 2 21 Dec 21:20:36 21:24:36 41° 49° (NE) 21:28:33 435.950
BRITE-PL 21 Dec 21:27:48 21:30:35 17° 268° (W) 21:33:21 437.365/2234.400
Oscar 11 21 Dec 21:28:21 21:32:36 54° 260° (W) 21:36:53 145.826/435.025
AAUSAT CUBESAT 2 21 Dec 21:36:02 21:39:24 23° 266° (W) 21:42:49 437.432
UKube-1 21 Dec 21:37:40 21:41:55 55° 259° (W) 21:46:11 .
PCSat 21 Dec 21:47:05 21:52:01 34° 48° (NE) 21:56:54 145.827
GOMX 1 21 Dec 21:48:38 21:51:00 15° 269° (W) 21:53:23 467.674
CUSAT 1 21 Dec 21:52:39 21:59:12 30° 273° (W) 22:06:14 437.405
CUBEBUG 2 21 Dec 21:57:08 22:01:06 42° 262° (W) 22:05:12 437.445
ZACube-1 21 Dec 22:02:09 22:06:13 51° 261° (W) 22:10:24 437.345
TIGRISAT 21 Dec 22:02:54 22:06:26 21° 93° (E) 22:09:57 435.000
VELOX 1 21 Dec 22:07:52 22:12:17 79° 257° (WSW) 22:16:44 145.980
DOVE 4 21 Dec 22:08:55 22:10:41 12° 271° (W) 22:12:28 437.250
BUGSAT 1 21 Dec 22:12:08 22:13:08 11° 90° (E) 22:14:09 437.445
ESTCUBE 1 21 Dec 22:14:57 22:19:20 50° 72° (ENE) 22:23:44 437.505/2401.250
TISAT 1 21 Dec 22:15:21 22:17:13 13° 61° (ENE) 22:19:04 437.305
DUCHIFAT 1 21 Dec 22:17:39 22:20:28 17° 92° (E) 22:23:16 145.980
BEESAT 3 21 Dec 22:17:41 22:21:44 50° 241° (WSW) 22:25:43 437.485
50 SAT 21 Dec 22:20:59 22:24:58 65° 259° (W) 22:29:01 437.505
DELFI C3 21 Dec 22:21:52 22:24:36 17° 268° (W) 22:27:22 145.870
SPROUT 21 Dec 22:22:20 22:24:36 14° 62° (ENE) 22:26:52 437.525
CINEMA 3 21 Dec 22:24:22 22:26:39 14° 270° (W) 22:28:59 145.822/145.860
FUNcube-1 21 Dec 22:29:12 22:32:45 27° 265° (W) 22:36:23 145.935
AIST 2 21 Dec 22:31:31 22:35:51 87° 236° (SW) 22:40:05 435.215
QB50P2 21 Dec 22:31:35 22:35:07 25° 95° (E) 22:38:38 145.880/145.840
UNISAT 6 21 Dec 22:32:05 22:36:33 40° 98° (E) 22:40:59 437.425
UWE-3 21 Dec 22:33:43 22:36:52 21° 267° (W) 22:40:07 435.000/436.395/437.385
POLYITAN 1 21 Dec 22:40:40 22:44:30 31° 96° (E) 22:48:19 437.675
NANOSAT C BR1 21 Dec 22:41:46 22:45:34 31° 96° (E) 22:49:21 145.865
DX 1 21 Dec 22:47:44 22:48:53 11° 271° (W) 22:50:01 434.975-435.025
DANDE 21 Dec 22:52:43 22:56:18 14° 281° (W) 23:00:03 436.750
AISAT 21 Dec 22:52:44 22:56:27 27° 265° (W) 23:00:12 437.250
CUBEBUG 1 21 Dec 22:53:09 22:57:29 68° 258° (WSW) 23:01:51 437.445
HUMSAT D 21 Dec 22:54:00 22:57:21 24° 266° (W) 23:00:45 437.325/437.525
QB50P1 21 Dec 22:56:12 23:00:18 44° 99° (E) 23:04:23 145.935-145.965
BEESAT 2 21 Dec 22:59:22 23:02:37 22° 247° (WSW) 23:05:50 435.950
SO-50 21 Dec 23:03:22 23:06:16 16° 326° (NNW) 23:09:13 436.795
ANTELSAT 21 Dec 23:03:59 23:08:44 85° 103° (ESE) 23:13:28 437.575/2403.000
YUBILEINY 21 Dec 23:06:08 23:14:00 40° 86° (E) 23:21:51 435.215
POPSAT HIP 1 21 Dec 23:24:58 23:29:15 88° 284° (WNW) 23:33:32 437.405
PCSat 21 Dec 23:30:26 23:35:30 41° 248° (WSW) 23:40:31 145.827
RS-15 21 Dec 23:30:54 23:37:17 17° 263° (W) 23:43:49 29.354- 29.394
SWISSCUBE 21 Dec 23:35:35 23:38:46 18° 62° (ENE) 23:41:58 437.505
ITUPSAT 1 21 Dec 23:36:47 23:39:49 17° 61° (ENE) 23:42:52 437.325
TIGRISAT 21 Dec 23:38:53 23:43:22 45° 289° (WNW) 23:47:51 435.000
BUGSAT 1 21 Dec 23:45:02 23:49:03 65° 286° (WNW) 23:53:06 437.445
TISAT 1 21 Dec 23:48:20 23:52:30 67° 258° (WSW) 23:56:42 437.305
DUCHIFAT 1 21 Dec 23:52:29 23:56:32 45° 289° (WNW) 00:00:36 145.980
ESTCUBE 1 21 Dec 23:53:32 23:56:30 17° 268° (W) 23:59:28 437.505/2401.250
SPROUT 21 Dec 23:55:58 00:00:12 61° 259° (W) 00:04:27 437.525
BEESAT 21 Dec 23:59:19 00:03:19 27° 66° (ENE) 00:07:19 436.000
QB50P2 22 Dec 00:07:16 00:11:03 31° 291° (WNW) 00:14:50 145.880/145.840
AUBIESAT-1 22 Dec 00:07:57 00:11:42 23° 59° (ENE) 00:15:26 437.475
UNISAT 6 22 Dec 00:09:21 00:13:06 24° 295° (WNW) 00:16:51 437.425
O/OREOS (USA 219) 22 Dec 00:10:20 00:14:26 38° 106° (ESE) 00:18:34 437.305
POLYITAN 1 22 Dec 00:16:47 00:20:20 26° 293° (WNW) 00:23:53 437.675
NANOSAT C BR1 22 Dec 00:17:50 00:21:19 25° 293° (WNW) 00:24:49 145.865
QB50P1 22 Dec 00:32:56 00:35:52 18° 296° (WNW) 00:38:48 145.935-145.965
M-CUBED/EXP-1 PRIME 22 Dec 00:33:35 00:38:07 40° 64° (ENE) 00:42:42 437.505
KKS-1 22 Dec 00:42:39 00:45:12 15° 61° (ENE) 00:47:46 437.445
ANTELSAT 22 Dec 00:42:50 00:44:50 13° 301° (WNW) 00:46:51 437.575/2403.000
YUBILEINY 22 Dec 01:02:16 01:10:37 48° 286° (WNW) 01:19:00 435.215
Oscar 19 22 Dec 01:09:50 01:14:27 31° 96° (E) 01:19:01 437.125/150
SWISSCUBE 22 Dec 01:11:27 01:16:11 58° 259° (W) 01:20:56 437.505
ITUPSAT 1 22 Dec 01:12:28 01:17:13 63° 258° (WSW) 01:22:00 437.325
ITAMSAT 1 22 Dec 01:29:31 01:32:56 18° 91° (E) 01:36:21 435.822/435.867
Gurwin Techsat 1B 22 Dec 01:33:55 01:35:55 12° 87° (E) 01:37:55 435.225
BEESAT 22 Dec 01:36:37 01:41:01 36° 263° (W) 01:45:26 436.000
AUBIESAT-1 22 Dec 01:41:32 01:46:16 52° 255° (WSW) 01:51:03 437.475
O/OREOS (USA 219) 22 Dec 01:50:20 01:53:57 24° 305° (NW) 01:57:36 437.305
M-CUBED/EXP-1 PRIME 22 Dec 02:09:03 02:13:10 27° 261° (W) 02:17:20 437.505
STARS 22 Dec 02:10:08 02:14:30 78° 75° (ENE) 02:18:54 437.465
KKS-1 22 Dec 02:16:59 02:21:22 61° 259° (W) 02:25:46 437.445
VERMONT LUNAR 22 Dec 02:31:17 02:33:54 20° 155° (SSE) 02:36:31 437.305
Oscar 19 22 Dec 02:49:05 02:53:47 35° 293° (WNW) 02:58:28 437.125/150
AIST 1 22 Dec 02:49:47 02:53:30 28° 74° (ENE) 02:57:11
PHONESAT 2.4 22 Dec 02:52:08 02:54:46 19° 155° (SSE) 02:57:25 2401.200-2431.200
AO-7 22 Dec 02:52:13 02:56:42 15° 87° (E) 03:01:08 29.400- 29.500
ITAMSAT 1 22 Dec 03:07:44 03:12:50 61° 288° (WNW) 03:17:55 435.822/435.867
Gurwin Techsat 1B 22 Dec 03:11:14 03:16:35 88° 285° (WNW) 03:21:54 435.225
MOZHAYETS 4 22 Dec 03:37:05 03:41:12 32° 68° (ENE) 03:45:20
HORYU 2 22 Dec 03:38:24 03:42:56 72° 103° (ESE) 03:47:26 437.375
STARS 22 Dec 03:50:55 03:51:31 10° 272° (W) 03:52:08 437.465
VERMONT LUNAR 22 Dec 04:08:23 04:11:46 43° 172° (S) 04:15:08 437.305
SO-50 22 Dec 04:10:39 04:14:34 24° 40° (NE) 04:18:31 436.795
AIST 1 22 Dec 04:27:34 04:31:03 25° 271° (W) 04:34:31
PHONESAT 2.4 22 Dec 04:29:32 04:32:59 43° 171° (S) 04:36:27 2401.200-2431.200
AO-7 22 Dec 04:42:23 04:50:49 76° 107° (ESE) 04:59:10 29.400- 29.500
Gurwin Techsat 1B 22 Dec 04:53:13 04:55:46 14° 303° (WNW) 04:58:18 435.225
GONETS M04 22 Dec 05:00:46 05:09:03 47° 88° (E) 05:17:21
CUBESAT XI-V 22 Dec 05:05:17 05:08:46 21° 65° (ENE) 05:12:15 437.345
CUTE-I 22 Dec 05:10:51 05:12:19 11° 87° (E) 05:13:46 437.470
MOZHAYETS 4 22 Dec 05:14:25 05:18:25 28° 265° (W) 05:22:26
HORYU 2 22 Dec 05:16:47 05:19:01 14° 300° (WNW) 05:21:14 437.375
JAS-2 22 Dec 05:20:35 05:26:13 67° 101° (ESE) 05:31:24 435.910
PRISM 22 Dec 05:23:22 05:27:32 64° 73° (ENE) 05:31:44 437.425
VERMONT LUNAR 22 Dec 05:46:27 05:49:49 43° 189° (S) 05:53:11 437.305
SO-50 22 Dec 05:50:41 05:55:31 63° 239° (WSW) 06:00:22 436.795
STRAND 1 22 Dec 05:51:54 05:56:52 54° 71° (ENE) 06:01:51 437.568
PHONESAT 2.4 22 Dec 06:07:56 06:11:25 45° 188° (S) 06:14:54 2401.200-2431.200
Cubesat XI-IV 22 Dec 06:15:07 06:20:13 45° 99° (E) 06:25:18 437.490
AO-7 22 Dec 06:36:05 06:42:50 29° 307° (NW) 06:49:35 29.400- 29.500
CUBESAT XI-V 22 Dec 06:41:27 06:45:54 45° 262° (W) 06:50:23 437.345
CUTE-I 22 Dec 06:47:47 06:53:08 86° 104° (ESE) 06:58:28 437.470
GONETS M04 22 Dec 06:57:45 07:05:58 42° 289° (WNW) 07:14:14
PRISM 22 Dec 07:01:48 07:03:29 12° 270° (W) 07:05:09 437.425
JAS-2 22 Dec 07:06:58 07:10:39 18° 303° (WNW) 07:14:11 435.910
VERMONT LUNAR 22 Dec 07:25:06 07:27:40 19° 205° (SSW) 07:30:14 437.305
STRAND 1 22 Dec 07:32:45 07:36:23 19° 268° (W) 07:40:02 437.568
PHONESAT 2.4 22 Dec 07:46:54 07:49:39 21° 204° (SSW) 07:52:25 2401.200-2431.200
BRITE-PL 22 Dec 07:51:43 07:53:59 13° 90° (E) 07:56:19 437.365/2234.400
Cubesat XI-IV 22 Dec 07:55:44 08:00:04 26° 297° (WNW) 08:04:23 437.490
CANX-2 22 Dec 08:03:01 08:05:14 14° 90° (E) 08:07:27 2200.000
GOMX 1 22 Dec 08:09:23 08:12:04 15° 91° (E) 08:14:49 467.674
HO-68 22 Dec 08:18:28 08:24:31 29° 94° (E) 08:30:31 435.675
COMPASS 1 22 Dec 08:19:55 08:22:05 14° 90° (E) 08:24:15 437.405
DOVE 4 22 Dec 08:26:34 08:29:35 16° 91° (E) 08:32:40 437.250
SEEDS 22 Dec 08:27:04 08:30:13 20° 92° (E) 08:33:20 437.485
CUTE-I 22 Dec 08:29:39 08:32:29 15° 303° (WNW) 08:35:18 437.470
ANTELSAT 22 Dec 08:32:03 08:32:56 11° 58° (ENE) 08:33:49 437.575/2403.000
CUTE 1.7 + AOD 2 22 Dec 08:32:28 08:36:06 26° 95° (E) 08:39:42 437.475
CINEMA 3 22 Dec 08:39:56 08:42:06 13° 89° (E) 08:44:18 145.822/145.860
O/OREOS (USA 219) 22 Dec 08:40:51 08:42:57 13° 48° (NE) 08:45:03 437.305
DANDE 22 Dec 08:42:04 08:44:30 16° 80° (E) 08:47:22 436.750
DX 1 22 Dec 08:57:27 08:58:41 11° 89° (E) 08:59:54 434.975-435.025
TIGRISAT 22 Dec 09:03:39 09:06:57 21° 64° (ENE) 09:10:19 435.000
BUGSAT 1 22 Dec 09:04:58 09:05:45 11° 60° (ENE) 09:06:31 437.445
DUCHIFAT 1 22 Dec 09:12:29 09:15:07 17° 63° (ENE) 09:17:46 145.980
MaSat-1 22 Dec 09:12:51 09:14:42 22° 302° (WNW) 09:16:32 437.345
YUBILEINY 22 Dec 09:14:31 09:20:46 21° 61° (ENE) 09:26:58 435.215
Oscar 11 22 Dec 09:14:54 09:18:28 24° 94° (E) 09:22:01 145.826/435.025
AAUSAT CUBESAT 2 22 Dec 09:17:17 09:21:26 50° 99° (E) 09:25:32 437.432
CUSAT 1 22 Dec 09:22:43 09:26:28 57° 94° (E) 09:31:34 437.405
UKube-1 22 Dec 09:24:46 09:28:08 22° 94° (E) 09:31:28 .
QB50P2 22 Dec 09:26:32 09:29:53 23° 66° (ENE) 09:33:14 145.880/145.840
BRITE-PL 22 Dec 09:28:10 09:32:53 75° 285° (WNW) 09:38:00 437.365/2234.400
UNISAT 6 22 Dec 09:32:46 09:36:53 41° 70° (ENE) 09:41:08 437.425
POLYITAN 1 22 Dec 09:35:42 09:39:18 28° 68° (ENE) 09:42:57 437.675
RS-15 22 Dec 09:35:57 09:40:59 14° 96° (E) 09:46:00 29.354- 29.394
NANOSAT C BR1 22 Dec 09:36:18 09:39:55 28° 68° (ENE) 09:43:32 145.865
CANX-2 22 Dec 09:37:17 09:41:33 57° 287° (WNW) 09:45:46 2200.000
GOMX 1 22 Dec 09:45:47 09:50:33 69° 285° (WNW) 09:55:38 467.674
CUBEBUG 2 22 Dec 09:46:35 09:50:54 36° 97° (E) 09:55:16 437.445
ZACube-1 22 Dec 09:49:39 09:53:35 28° 95° (E) 09:57:32 437.345
QB50P1 22 Dec 09:50:39 09:54:35 40° 71° (ENE) 09:58:32 145.935-145.965
COMPASS 1 22 Dec 09:53:59 09:58:10 56° 287° (WNW) 10:02:19 437.405
VELOX 1 22 Dec 09:58:23 10:01:24 18° 92° (E) 10:04:24 145.980
DELFI C3 22 Dec 09:59:32 10:03:38 61° 101° (E) 10:07:41 145.870
50 SAT 22 Dec 10:01:00 10:03:37 16° 92° (E) 10:06:14 437.505
SEEDS 22 Dec 10:02:11 10:06:12 39° 289° (WNW) 10:10:10 437.485
DOVE 4 22 Dec 10:02:55 10:07:39 62° 286° (WNW) 10:12:39 437.250
ANTELSAT 22 Dec 10:04:33 10:08:57 88° 76° (ENE) 10:13:30 437.575/2403.000
HO-68 22 Dec 10:05:37 10:12:36 58° 293° (WNW) 10:19:32 435.675
CUTE 1.7 + AOD 2 22 Dec 10:08:14 10:12:01 30° 291° (WNW) 10:15:46 437.475
CINEMA 3 22 Dec 10:15:00 10:19:46 76° 285° (WNW) 10:24:41 145.822/145.860
FUNcube-1 22 Dec 10:15:29 10:19:55 51° 99° (E) 10:24:23 145.935
O/OREOS (USA 219) 22 Dec 10:18:28 10:23:01 87° 248° (WSW) 10:27:33 437.305
POPSAT HIP 1 22 Dec 10:19:17 10:23:29 83° 76° (ENE) 10:27:43 437.405
UWE-3 22 Dec 10:20:47 10:25:24 70° 102° (ESE) 10:30:03 435.000/436.395/437.385
DANDE 22 Dec 10:23:42 10:27:16 39° 290° (WNW) 10:32:01 436.750
DX 1 22 Dec 10:31:04 10:35:24 72° 286° (WNW) 10:39:44 434.975-435.025
HUMSAT D 22 Dec 10:36:13 10:40:26 49° 99° (E) 10:44:40 437.325/437.525
BUGSAT 1 22 Dec 10:36:34 10:40:39 78° 257° (WSW) 10:44:43 437.445
TIGRISAT 22 Dec 10:39:18 10:43:25 41° 262° (W) 10:47:40 435.000
AISAT 22 Dec 10:41:40 10:46:00 51° 100° (E) 10:50:20 437.250
CUBEBUG 1 22 Dec 10:41:43 10:44:53 20° 93° (E) 10:48:03 437.445
DUCHIFAT 1 22 Dec 10:46:32 10:50:36 49° 260° (W) 10:54:42 145.980
Oscar 11 22 Dec 10:50:46 10:54:41 33° 291° (WNW) 10:58:34 145.826/435.025
AAUSAT CUBESAT 2 22 Dec 10:54:03 10:56:42 16° 296° (WNW) 10:59:21 437.432
UKube-1 22 Dec 11:00:24 11:04:23 36° 291° (WNW) 11:08:21 .
QB50P2 22 Dec 11:01:49 11:05:38 33° 263° (W) 11:09:28 145.880/145.840
CUSAT 1 22 Dec 11:07:56 11:10:27 15° 303° (WNW) 11:13:22 437.405
YUBILEINY 22 Dec 11:10:06 11:18:50 89° 263° (W) 11:27:33 435.215
UNISAT 6 22 Dec 11:10:37 11:13:52 20° 268° (W) 11:17:12 437.425
POLYITAN 1 22 Dec 11:11:40 11:15:13 26° 265° (W) 11:18:48 437.675
NANOSAT C BR1 22 Dec 11:12:13 11:15:45 26° 265° (W) 11:19:19 145.865
CUBEBUG 2 22 Dec 11:23:35 11:27:26 26° 293° (WNW) 11:31:20 437.445
ZACube-1 22 Dec 11:25:55 11:29:55 31° 291° (WNW) 11:33:57 437.345
QB50P1 22 Dec 11:27:41 11:30:39 19° 267° (W) 11:33:37 145.935-145.965
TISAT 1 22 Dec 11:33:00 11:35:50 17° 92° (E) 11:38:40 437.305
VELOX 1 22 Dec 11:33:59 11:38:13 46° 289° (WNW) 11:42:26 145.980
50 SAT 22 Dec 11:35:05 11:39:04 45° 288° (WNW) 11:43:02 437.505
DELFI C3 22 Dec 11:36:26 11:38:24 13° 298° (WNW) 11:40:21 145.870
RS-15 22 Dec 11:40:15 11:51:01 68° 117° (ESE) 12:01:50 29.354- 29.394
SPROUT 22 Dec 11:42:08 11:45:25 21° 93° (E) 11:48:41 437.525
ESTCUBE 1 22 Dec 11:43:06 11:47:38 88° 286° (WNW) 11:52:07 437.505/2401.250
FUNcube-1 22 Dec 11:52:47 11:55:54 19° 296° (WNW) 11:59:02 145.935
CINEMA 3 22 Dec 11:55:50 11:56:11 10° 302° (WNW) 11:56:32 145.822/145.860
HO-68 22 Dec 11:55:56 11:58:50 13° 313° (NW) 12:01:44 435.675
UWE-3 22 Dec 11:58:54 12:01:24 15° 298° (WNW) 12:03:55 435.000/436.395/437.385
HUMSAT D 22 Dec 12:13:01 12:15:52 17° 296° (WNW) 12:18:43 437.325/437.525
ISS 22 Dec 12:13:41 12:15:35 15° 132° (SE) 12:17:29 145.825
BEESAT 3 22 Dec 12:14:13 12:17:21 21° 113° (ESE) 12:20:31 437.485
CUBEBUG 1 22 Dec 12:17:22 12:21:25 40° 290° (WNW) 12:25:28 437.445
AISAT 22 Dec 12:19:19 12:22:15 18° 297° (WNW) 12:25:11 437.250
Oscar 19 22 Dec 12:27:56 12:32:54 51° 70° (ENE) 12:37:54 437.125/150
PCSat 22 Dec 12:31:27 12:35:24 21° 106° (ESE) 12:39:22 145.827
AIST 2 22 Dec 12:33:03 12:35:24 15° 109° (ESE) 12:37:46 435.215
ITAMSAT 1 22 Dec 12:48:32 12:53:03 32° 66° (ENE) 12:57:35 435.822/435.867
BEESAT 2 22 Dec 12:54:52 12:58:50 50° 119° (ESE) 13:02:54 435.950
Gurwin Techsat 1B 22 Dec 12:55:24 12:59:33 24° 63° (ENE) 13:03:42 435.225
